Flag for United Kingdom Weather past 2 weeks in Peterborough, England, United Kingdom

Now
46 °F

Partly sunny.


Feels Like: 39 °F
Forecast: 40 / 48 °F
Wind: 17 mph from Northwest

Location: Wittering

Current Time: Jan 26, 2015 at 11:21:58 AM

Latest Report: Jan 26, 2015 at 10:50 AM


Visibility: N/A

Pressure: 30.15 "Hg

Humidity: 66%

Dew point: 36 °F

Location of PeterboroughLocation

Historic Weather in Peterborough — Graph

°F

Peterborough temperature yesterday

Maximum temperature yesterday: 48 °F (at 11:50 PM)
Minimum temperature yesterday: 32 °F (at 12:50 AM)
Average temperature yesterday: 41 °F

Past Weeks' High & Low Weather Summary

 TemperatureHumidityPressure
High52 °F (Jan 12, 1:50 PM)100% (Jan 12, 2:50 AM)30.42 "Hg (Jan 12, 2:50 AM)
Low25 °F (Jan 20, 5:50 AM)61% (Jan 18, 2:50 PM)28.97 "Hg (Jan 15, 2:50 AM)
Average38 °F86%29.80 "Hg
* Reported Jan 11 9:50 AM — Jan 26 9:50 AM, Peterborough, Weather by CustomWeather, © 2014

Note: Actual official high and low records may vary slightly from our data, if they occured in-between our weather recording intervals... More about our weather records

Advertising

Peterborough weather history for previous 24 hours

 ConditionsComfort  
Time TempWeatherWind HumidityBarometerVisibility
9:50 AM
Jan 26
46 °FScattered clouds.16 mph82%30.15 "HgN/A
8:50 AM46 °FScattered clouds.10 mph93%30.12 "HgN/A
7:50 AM46 °FPartly sunny.12 mph100%30.12 "HgN/A
6:50 AM48 °FSprinkles. Passing clouds.13 mph94%30.09 "HgN/A
5:50 AM48 °FPartly cloudy.16 mph94%30.09 "HgN/A
4:50 AM48 °FSprinkles. Passing clouds.16 mph94%30.09 "HgN/A
3:50 AM46 °FSprinkles. Passing clouds.14 mph93%30.09 "HgN/A
2:50 AM46 °FPartly cloudy.14 mph93%30.12 "HgN/A
1:50 AM48 °FPassing clouds.15 mph87%30.12 "HgN/A
12:50 AM46 °FPassing clouds.14 mph93%30.15 "HgN/A
11:50 PM
Jan 25
48 °FSprinkles. Passing clouds.14 mph87%30.18 "HgN/A
10:50 PM46 °FMostly cloudy.14 mph93%30.18 "HgN/A
9:50 PM46 °FOvercast.18 mph93%30.21 "HgN/A
8:50 PM46 °FOvercast.20 mph93%30.21 "HgN/A
7:50 PM45 °FPassing clouds.17 mph93%30.24 "HgN/A
6:50 PM45 °FPassing clouds.18 mph93%30.24 "HgN/A
5:50 PM45 °FPassing clouds.14 mph87%30.27 "HgN/A
4:50 PM45 °FOvercast.17 mph87%30.27 "HgN/A
3:50 PM46 °FOvercast.12 mph82%30.27 "HgN/A
2:50 PM46 °FOvercast.14 mph82%30.27 "HgN/A
1:50 PM46 °FBroken clouds.17 mph76%30.30 "HgN/A
12:50 PM46 °FOvercast.15 mph76%30.33 "HgN/A
11:50 AM45 °FOvercast.14 mph76%30.33 "HgN/A
Weather by CustomWeather, © 2014

See weather overviewHow to use our weather pages